FW2982 Weather Reports


Display with metric or nautical units.
time (UTC)temp
F
wind
direction
speed
MPH
gust
MPH
rain 1hr
in
rain 24hr
in
rain mn
in
humidity
%
barometer
mb
20260507180223 65 93 1.0 7.0 0.00 0.01 0.01 49 1007.8
20260507175724 65 281 1.0 7.0 0.00 0.01 0.01 50 1007.7
20260507175219 65 23 2.0 4.0 0.00 0.01 0.01 48 1007.9
20260507174715 64 66 2.0 4.0 0.00 0.01 0.01 53 1007.9
20260507174215 62 279 2.0 6.0 0.00 0.01 0.01 51 1007.9
20260507173716 62 82 3.0 6.0 0.00 0.01 0.01 48 1008.0
20260507173215 62 175 3.0 6.0 0.00 0.01 0.01 49 1008.0
20260507172952 61 25 4.0 6.0 0.00 0.01 0.01 49 1008.2
20260507172212 61 79 1.0 6.0 0.00 0.01 0.01 56 1008.4
20260507171949 61 78 3.0 6.0 0.00 0.01 0.01 50 1008.6
20260507171210 62 281 0.0 3.0 0.00 0.01 0.01 51 1008.7
20260507170944 62 347 1.0 4.0 0.00 0.01 0.01 55 1008.8
20260507170204 60 223 2.0 4.0 0.00 0.01 0.01 56 1008.8
20260507165702 59 123 1.0 6.0 0.00 0.01 0.01 57 1008.9
20260507165203 59 99 2.0 6.0 0.00 0.01 0.01 56 1009.0
20260507164702 58 97 0.0 4.0 0.00 0.01 0.01 56 1009.1
20260507164202 59 106 2.0 3.0 0.00 0.01 0.01 57 1009.3
20260507163704 60 276 0.0 4.0 0.00 0.01 0.01 57 1009.1
20260507163203 59 268 1.0 4.0 0.00 0.01 0.01 57 1009.1
20260507162941 58 97 2.0 4.0 0.00 0.01 0.01 53 1009.2
20260507162441 60 20 1.0 4.0 0.00 0.01 0.01 58 1009.4
20260507161703 58 41 2.0 4.0 0.00 0.01 0.01 60 1009.5
20260507161202 57 89 1.0 4.0 0.00 0.01 0.01 58 1009.4
20260507160705 58 97 1.0 3.0 0.00 0.01 0.01 63 1009.5
20260507160203 58 221 1.0 3.0 0.00 0.01 0.01 64 1009.6
20260507155702 58 214 1.0 3.0 0.00 0.01 0.01 62 1009.6
20260507155442 58 102 0.0 2.0 0.00 0.01 0.01 61 1009.6
20260507154703 58 49 1.0 2.0 0.00 0.01 0.01 64 1009.5
20260507154201 57 49 0.0 3.0 0.00 0.01 0.01 62 1009.7
20260507153702 57 42 1.0 3.0 0.00 0.01 0.01 62 1009.7
20260507153202 57 265 0.0 3.0 0.00 0.01 0.01 63 1009.8
20260507152703 57 276 1.0 3.0 0.00 0.02 0.01 63 1009.9
20260507152439 57 278 1.0 3.0 0.00 0.02 0.01 62 1010.0
20260507151704 58 61 1.0 3.0 0.00 0.02 0.01 65 1009.9
20260507151440 57 82 0.0 3.0 0.00 0.02 0.01 63 1009.9
20260507150702 56 82 0.0 3.0 0.00 0.02 0.01 65 1010.0
20260507150202 56 83 1.0 3.0 0.00 0.03 0.01 66 1010.0
20260507145702 56 85 0.0 3.0 0.00 0.03 0.01 64 1010.1
20260507145441 56 106 1.0 2.0 0.00 0.04 0.01 65 1010.1
20260507144702 56 58 1.0 3.0 0.00 0.04 0.01 68 1010.2
20260507144203 55 63 0.0 3.0 0.00 0.05 0.01 66 1010.3
20260507143918 55 226 0.0 3.0 0.00 0.05 0.01 70 1010.4
20260507143138 55 290 0.0 2.0 0.00 0.06 0.01 69 1010.4
20260507142920 55 290 0.0 2.0 0.00 0.06 0.01 68 1010.4
20260507142140 55 289 0.0 1.0 0.00 0.06 0.01 70 1010.3
20260507141917 55 289 0.0 1.0 0.00 0.06 0.01 71 1010.5
20260507141138 55 289 0.0 1.0 0.00 0.06 0.01 73 1010.5
20260507140640 54 289 0.0 3.0 0.00 0.07 0.01 70 1010.5
20260507140420 54 289 1.0 3.0 0.00 0.07 0.01 71 1010.4
20260507135638 54 55 0.0 3.0 0.00 0.08 0.01 72 1010.7
20260507135138 54 55 0.0 3.0 0.00 0.08 0.01 70 1010.6
20260507134637 54 296 0.0 3.0 0.00 0.09 0.01 70 1011.0
20260507134137 54 285 1.0 3.0 0.00 0.11 0.01 71 1010.7
20260507133917 54 295 0.0 3.0 0.00 0.13 0.01 71 1010.7
20260507133137 54 295 1.0 4.0 0.00 0.14 0.01 70 1010.8
20260507132917 54 63 1.0 4.0 0.00 0.16 0.01 70 1010.7
20260507132137 54 16 1.0 3.0 0.00 0.18 0.01 71 1010.7
20260507131915 54 271 1.0 2.0 0.00 0.20 0.01 74 1010.6
20260507131138 55 252 0.0 2.0 0.00 0.22 0.01 75 1010.6
20260507130636 54 262 0.0 3.0 0.00 0.24 0.01 76 1010.6
20260507130138 54 262 0.0 3.0 0.00 0.25 0.01 75 1010.7
20260507125636 54 283 1.0 3.0 0.00 0.25 0.01 76 1010.5
20260507125140 54 90 1.0 2.0 0.00 0.25 0.01 77 1010.4
20260507124636 54 149 0.0 3.0 0.00 0.25 0.01 78 1010.5
20260507124137 54 148 0.0 3.0 0.00 0.25 0.01 78 1010.7
20260507123637 54 255 0.0 2.0 0.00 0.26 0.01 78 1010.5
20260507123136 54 255 0.0 2.0 0.00 0.26 0.01 77 1010.6
20260507122635 54 255 0.0 3.0 0.00 0.26 0.01 78 1010.7
20260507122135 54 255 0.0 3.0 0.00 0.26 0.01 79 1010.7
20260507121636 54 209 0.0 2.0 0.00 0.26 0.01 78 1010.6
20260507121137 54 169 0.0 1.0 0.00 0.26 0.01 79 1010.5
20260507120637 54 169 0.0 1.0 0.00 0.27 0.01 79 1010.5
20260507120135 54 169 0.0 2.0 0.00 0.28 0.01 78 1010.4
20260507115635 54 94 0.0 3.0 0.00 0.28 0.01 77 1010.5
20260507115133 54 86 0.0 3.0 0.00 0.28 0.01 79 1010.6
20260507114634 54 80 0.0 2.0 0.00 0.28 0.01 78 1010.3
20260507114132 54 250 0.0 3.0 0.00 0.28 0.01 79 1010.3
20260507113631 54 247 0.0 3.0 0.00 0.28 0.01 78 1010.1
20260507113131 54 31 0.0 3.0 0.00 0.28 0.01 80 1010.0
20260507112632 54 316 0.0 3.0 0.00 0.28 0.01 81 1010.0
20260507112132 54 316 0.0 3.0 0.00 0.28 0.01 81 1010.1
20260507111911 54 329 0.0 1.0 0.00 0.28 0.01 81 1010.1
20260507111131 54 330 0.0 1.0 0.00 0.28 0.01 81 1010.0
20260507110631 54 333 0.0 1.0 0.00 0.28 0.01 82 1009.9
20260507110131 54 330 0.0 1.0 0.00 0.28 0.01 82 1009.9
20260507105631 54 330 0.0 1.0 0.00 0.28 0.01 81 1010.0
20260507105133 54 330 0.0 1.0 0.00 0.28 0.01 81 1010.0
20260507104632 54 330 0.0 1.0 0.00 0.28 0.01 81 1009.9
20260507104132 54 330 0.0 1.0 0.00 0.28 0.01 81 1009.8
20260507103618 54 330 0.0 1.0 0.00 0.28 0.01 80 1009.7
20260507103112 54 331 0.0 3.0 0.00 0.28 0.01 80 1009.7
20260507102607 54 331 0.0 3.0 0.00 0.28 0.01 81 1009.7
20260507102107 54 180 0.0 0.0 0.00 0.28 0.01 81 1009.5
20260507101606 54 180 0.0 0.0 0.00 0.28 0.01 81 1009.6
20260507101103 54 180 0.0 0.0 0.00 0.28 0.01 81 1009.5
20260507100607 54 180 0.0 2.0 0.00 0.28 0.01 80 1009.5
20260507100104 54 179 1.0 2.0 0.00 0.28 0.01 80 1009.5
20260507095541 54 86 0.0 2.0 0.00 0.28 0.01 81 1009.5
20260507095041 54 283 0.0 2.0 0.00 0.28 0.01 81 1009.5
20260507094541 54 288 0.0 2.0 0.00 0.28 0.01 82 1009.4
20260507094104 54 286 1.0 3.0 0.00 0.28 0.01 82 1009.4
20260507094055 54 288 0.0 3.0 0.00 0.28 0.01 82 1009.5
20260507093039 55 264 0.0 2.0 0.00 0.28 0.01 83 1009.4
20260507092537 55 221 0.0 3.0 0.00 0.28 0.01 83 1009.4
20260507092037 54 148 0.0 3.0 0.00 0.28 0.01 83 1009.3
20260507091536 55 329 0.0 2.0 0.00 0.28 0.01 84 1009.0
20260507091033 55 329 0.0 2.0 0.00 0.28 0.01 85 1009.0
20260507090811 55 329 0.0 2.0 0.00 0.28 0.01 85 1009.1
20260507090313 55 327 0.0 1.0 0.00 0.28 0.01 85 1009.1
20260507085531 55 329 0.0 1.0 0.00 0.28 0.01 86 1009.1
20260507085031 55 331 0.0 1.0 0.00 0.28 0.01 86 1009.2
20260507084556 55 329 0.0 0.0 0.00 0.28 0.01 87 1009.1
20260507084547 55 331 0.0 1.0 0.00 0.28 0.01 87 1009.2
20260507083533 55 329 0.0 3.0 0.00 0.28 0.01 87 1009.0
20260507083311 55 329 0.0 3.0 0.00 0.28 0.01 87 1009.1
20260507082531 55 0 0.0 2.0 0.00 0.28 0.01 87 1009.4
20260507082034 55 0 0.0 2.0 0.00 0.28 0.01 87 1009.1
20260507081531 55 4 0.0 1.0 0.00 0.28 0.01 87 1009.0
20260507081031 55 0 0.0 1.0 0.00 0.28 0.01 87 1009.0
20260507080532 55 6 0.0 1.0 0.00 0.28 0.01 87 1008.7
20260507080033 55 6 0.0 1.0 0.00 0.28 0.01 87 1008.6
20260507075812 55 6 0.0 1.0 0.00 0.28 0.01 87 1008.5
20260507075033 55 21 0.0 2.0 0.00 0.28 0.01 87 1008.4
20260507074532 55 107 0.0 2.0 0.00 0.28 0.01 87 1008.6
20260507074033 55 255 0.0 2.0 0.00 0.28 0.01 87 1008.6
20260507073533 55 255 0.0 3.0 0.00 0.28 0.01 87 1008.7
20260507073309 55 252 0.0 3.0 0.00 0.28 0.01 87 1008.4
20260507072531 55 320 1.0 3.0 0.00 0.28 0.01 88 1008.4
20260507072031 55 323 0.0 3.0 0.00 0.28 0.01 87 1008.3
20260507071532 55 257 0.0 3.0 0.00 0.28 0.01 88 1008.4
20260507071032 55 257 0.0 3.0 0.00 0.28 0.01 88 1008.5
20260507070810 55 261 0.0 2.0 0.00 0.28 0.01 88 1008.3
20260507070311 55 268 0.0 4.0 0.00 0.28 0.01 89 1008.4
20260507065811 55 274 0.0 4.0 0.00 0.28 0.01 89 1008.5
20260507065031 55 345 0.0 4.0 0.00 0.28 0.01 90 1008.4
20260507064530 56 230 1.0 4.0 0.00 0.28 0.01 90 1008.5
20260507064311 56 319 0.0 1.0 0.01 0.28 0.01 91 1008.5
20260507063532 56 319 0.0 1.0 0.01 0.28 0.01 91 1008.5
20260507063312 56 319 0.0 2.0 0.01 0.28 0.01 91 1008.5
20260507062532 56 314 0.0 2.0 0.01 0.28 0.01 91 1008.6
20260507062031 56 330 0.0 2.0 0.01 0.28 0.01 91 1008.7
20260507061531 56 351 0.0 3.0 0.01 0.28 0.01 91 1008.6
20260507061032 56 18 0.0 3.0 0.01 0.28 0.01 91 1008.3
20260507060810 56 259 0.0 2.0 0.01 0.28 0.01 91 1008.3
20260507060059 56 264 1.0 3.0 0.01 0.27 0.01 90 1008.4
20260507060052 56 30 0.0 3.0 0.01 0.27 0.01 91 1008.4
20260507055030 56 288 0.0 2.0 0.01 0.27 0.01 90 1008.6
20260507054531 56 285 1.0 3.0 0.01 0.27 0.01 90 1008.7
20260507054032 56 186 1.0 3.0 0.00 0.27 0.00 90 1008.5
20260507053532 57 317 1.0 3.0 0.00 0.27 0.00 89 1008.6
20260507053032 57 54 1.0 3.0 0.00 0.27 0.00 89 1008.7
20260507052530 57 45 1.0 3.0 0.00 0.27 0.00 89 1008.5
20260507052031 57 6 1.0 3.0 0.00 0.27 0.00 89 1008.7
20260507051531 57 295 1.0 3.0 0.00 0.27 0.00 89 1008.5
20260507051312 57 257 1.0 4.0 0.00 0.27 0.00 89 1008.3
20260507050532 57 73 1.0 4.0 0.00 0.27 0.00 88 1008.2
20260507050310 58 66 2.0 4.0 0.00 0.27 0.00 88 1008.2
20260507045533 58 244 1.0 3.0 0.00 0.27 0.00 88 1008.8
20260507045031 58 257 0.0 4.0 0.00 0.27 0.00 88 1008.8
20260507044532 58 61 1.0 4.0 0.00 0.27 0.00 87 1008.5
20260507044032 58 97 1.0 3.0 0.00 0.27 0.00 87 1008.6
20260507043531 59 245 0.0 2.0 0.00 0.27 0.00 86 1008.8
20260507043031 59 245 1.0 4.0 0.00 0.27 0.00 85 1008.7
20260507042531 59 237 1.0 4.0 0.00 0.27 0.00 85 1008.6
20260507042032 60 16 1.0 5.0 0.00 0.27 0.00 84 1008.9
20260507041531 60 200 0.0 5.0 0.00 0.27 0.00 84 1008.8
20260507041032 60 261 1.0 5.0 0.00 0.27 0.00 84 1008.6
20260507040531 60 350 0.0 1.0 0.00 0.27 0.00 84 1008.6
20260507040032 60 17 0.0 2.0 0.00 0.27 0.00 84 1008.4
20260507035811 60 18 1.0 2.0 0.00 0.27 0.27 84 1008.2
20260507035032 60 16 0.0 2.0 0.00 0.27 0.27 84 1008.1
20260507034531 60 13 0.0 3.0 0.00 0.27 0.27 84 1008.1
20260507034309 61 17 0.0 4.0 0.00 0.27 0.27 82 1008.0
20260507033525 61 262 1.0 6.0 0.00 0.27 0.27 81 1008.2
20260507033026 62 285 2.0 6.0 0.00 0.27 0.27 80 1008.4
20260507032525 62 212 1.0 6.0 0.00 0.27 0.27 79 1008.0
20260507032024 62 334 2.0 6.0 0.00 0.27 0.27 78 1008.4
20260507031523 62 306 0.0 2.0 0.00 0.27 0.27 79 1008.3
20260507031023 62 250 0.0 4.0 0.00 0.27 0.27 79 1008.3
20260507030800 62 313 1.0 4.0 0.00 0.27 0.27 79 1008.2
20260507030011 63 69 0.0 3.0 0.00 0.27 0.27 79 1007.9
20260507025750 63 55 0.0 4.0 0.00 0.27 0.27 79 1007.5
20260507025013 63 54 2.0 4.0 0.00 0.27 0.27 79 1007.3
20260507024511 63 109 2.0 9.0 0.00 0.27 0.27 79 1007.5
20260507024010 63 89 3.0 9.0 0.00 0.27 0.27 80 1008.0
20260507023745 63 102 1.0 7.0 0.00 0.27 0.27 80 1007.9
20260507023010 63 1 3.0 7.0 0.00 0.27 0.27 81 1007.7
20260507022510 64 13 3.0 6.0 0.00 0.27 0.27 83 1007.5
20260507022009 64 144 2.0 5.0 0.00 0.27 0.27 84 1007.5
20260507021506 64 37 0.0 4.0 0.00 0.27 0.27 84 1007.4
20260507021005 65 345 1.0 4.0 0.00 0.27 0.27 85 1007.3
20260507020502 65 288 1.0 3.0 0.00 0.27 0.27 86 1007.3
20260507020030 65 237 1.0 3.0 0.00 0.27 0.27 87 1007.2
20260507020022 65 233 1.0 3.0 0.00 0.27 0.27 86 1007.3
20260507015004 65 288 0.0 2.0 0.00 0.27 0.27 87 1007.2
20260507014529 65 68 0.0 2.0 0.00 0.27 0.27 88 1007.0
20260507014519 65 48 0.0 2.0 0.00 0.27 0.27 88 1007.1
20260507013502 65 61 0.0 2.0 0.00 0.27 0.27 89 1007.0
20260507013002 66 66 0.0 3.0 0.00 0.27 0.27 90 1007.3
20260507012502 66 58 0.0 3.0 0.00 0.27 0.27 90 1007.3
20260507012002 66 58 0.0 2.0 0.00 0.27 0.27 91 1007.3
20260507011503 66 261 0.0 1.0 0.00 0.27 0.27 91 1007.4
20260507011004 66 261 0.0 1.0 0.00 0.27 0.27 91 1007.4
20260507010504 66 261 0.0 0.0 0.00 0.27 0.27 91 1007.2
20260507010244 66 261 0.0 0.0 0.00 0.27 0.27 91 1007.3
20260507005503 66 261 0.0 2.0 0.00 0.27 0.27 91 1007.2
20260507005230 66 261 1.0 2.0 0.00 0.27 0.27 91 1007.0
20260507004447 66 261 0.0 0.0 0.00 0.27 0.27 90 1007.1
20260507003945 66 261 0.0 0.0 0.00 0.27 0.27 90 1007.1
20260507003444 66 261 0.0 1.0 0.00 0.27 0.27 90 1007.0
20260507002944 66 261 0.0 1.0 0.00 0.27 0.27 90 1007.0
20260507002443 66 261 0.0 0.0 0.00 0.27 0.27 89 1006.9
20260507001935 66 261 0.0 0.0 0.00 0.27 0.27 89 1006.8
20260507001433 67 261 0.0 0.0 0.00 0.27 0.27 88 1006.8
20260507000934 67 261 0.0 0.0 0.00 0.27 0.27 87 1006.7
20260507000435 67 261 0.0 0.0 0.00 0.27 0.27 86 1006.6
20260506235932 68 261 0.0 0.0 0.00 0.27 0.27 85 1006.6
20260506235432 68 261 0.0 0.0 0.00 0.27 0.27 84 1006.7
20260506235212 68 261 0.0 0.0 0.00 0.27 0.27 84 1006.6
20260506234432 68 261 0.0 0.0 0.00 0.27 0.27 83 1006.6
20260506234211 68 261 0.0 0.0 0.00 0.27 0.27 83 1006.6
20260506233433 69 261 0.0 0.0 0.00 0.27 0.27 83 1006.4
20260506232932 69 261 0.0 0.0 0.00 0.27 0.27 82 1006.4
20260506232433 69 261 0.0 1.0 0.00 0.27 0.27 82 1006.2
20260506232211 69 261 0.0 1.0 0.00 0.27 0.27 82 1006.2
20260506231433 69 261 0.0 1.0 0.00 0.27 0.27 82 1006.2
20260506231212 69 261 0.0 1.0 0.00 0.27 0.27 82 1006.1
20260506230426 69 261 0.0 2.0 0.00 0.27 0.27 82 1006.1
20260506225926 69 261 0.0 3.0 0.00 0.27 0.27 81 1006.1
20260506225426 69 261 0.0 3.0 0.00 0.27 0.27 80 1006.1
20260506224925 69 254 0.0 3.0 0.00 0.27 0.27 81 1006.0
20260506224425 69 257 0.0 3.0 0.00 0.27 0.27 82 1006.0
20260506223925 69 292 0.0 2.0 0.00 0.27 0.27 81 1005.9
20260506223425 69 292 0.0 2.0 0.00 0.27 0.27 82 1005.8
20260506222923 69 292 0.0 3.0 0.00 0.27 0.27 81 1005.8
20260506222422 69 344 2.0 4.0 0.00 0.27 0.27 80 1006.0
20260506221920 70 275 2.0 5.0 0.00 0.27 0.27 80 1005.9
20260506221419 70 230 2.0 5.0 0.00 0.27 0.27 79 1005.8
20260506221201 70 214 1.0 5.0 0.00 0.27 0.27 80 1005.8
20260506220658 70 252 2.0 5.0 0.00 0.27 0.27 79 1005.8
20260506215919 70 8 1.0 5.0 0.00 0.27 0.27 79 1005.8
20260506215416 70 168 1.0 5.0 0.00 0.27 0.27 80 1005.8
20260506214916 70 94 2.0 5.0 0.00 0.27 0.27 79 1005.8
20260506214416 71 248 2.0 5.0 0.00 0.27 0.27 79 1005.8
20260506213917 71 262 1.0 3.0 0.00 0.27 0.27 80 1005.8
20260506213655 71 226 1.0 6.0 0.00 0.27 0.27 78 1005.8
20260506212915 71 257 1.0 6.0 0.00 0.27 0.27 79 1005.8
20260506212416 71 183 1.0 5.0 0.00 0.27 0.27 80 1005.8
20260506212155 71 235 1.0 7.0 0.00 0.27 0.27 78 1005.7
20260506211416 71 233 2.0 7.0 0.00 0.27 0.27 77 1005.7
20260506210916 71 212 2.0 5.0 0.00 0.27 0.27 77 1005.8
20260506210416 71 288 2.0 5.0 0.00 0.27 0.27 78 1005.7
20260506205937 71 223 3.0 6.0 0.00 0.27 0.27 79 1005.5
20260506205929 71 245 1.0 5.0 0.00 0.27 0.27 78 1005.5
20260506204915 71 220 2.0 6.0 0.00 0.27 0.27 78 1005.4
20260506204415 71 161 2.0 5.0 0.00 0.27 0.27 79 1005.2
20260506203912 71 69 2.0 7.0 0.00 0.27 0.27 79 1005.4
20260506203410 70 224 0.0 7.0 0.00 0.27 0.27 80 1005.5
20260506202910 71 213 2.0 4.0 0.00 0.27 0.27 78 1005.4
20260506202409 71 223 2.0 5.0 0.00 0.27 0.27 78 1005.3
20260506201909 70 265 1.0 5.0 0.00 0.27 0.27 78 1005.5
20260506201435 70 237 3.0 5.0 0.00 0.27 0.27 79 1005.5
20260506201425 70 241 3.0 5.0 0.00 0.27 0.27 79 1005.4
20260506200650 69 235 3.0 6.0 0.00 0.27 0.27 79 1005.5
20260506195907 69 165 2.0 9.0 0.00 0.27 0.27 80 1005.6
20260506195407 69 237 4.0 9.0 0.00 0.27 0.27 79 1005.5
20260506194907 69 217 2.0 6.0 0.00 0.27 0.27 79 1005.5
20260506194407 69 241 3.0 6.0 0.00 0.27 0.27 79 1005.5
20260506194144 69 221 1.0 5.0 0.00 0.27 0.27 81 1005.6
20260506193403 70 262 1.0 7.0 0.00 0.27 0.27 81 1005.6
20260506193142 69 250 2.0 7.0 0.00 0.27 0.27 78 1005.6
20260506192401 70 189 2.0 10.0 0.00 0.27 0.27 78 1005.6
20260506191902 69 192 3.0 11.0 0.00 0.27 0.27 80 1005.7
20260506191357 69 230 4.0 11.0 0.00 0.27 0.27 80 1005.8
20260506190853 69 195 3.0 6.0 0.00 0.27 0.27 80 1005.6
20260506190354 69 214 3.0 6.0 0.00 0.27 0.27 79 1005.9
20260506190137 69 195 2.0 6.0 0.00 0.27 0.27 82 1005.9
20260506185355 68 189 3.0 6.0 0.00 0.27 0.27 82 1005.7
20260506185139 68 293 3.0 5.0 0.00 0.27 0.27 82 1005.9
20260506184633 67 309 2.0 9.0 0.00 0.27 0.27 82 1006.2
20260506184148 67 310 2.0 6.0 0.00 0.27 0.27 82 1006.2
20260506183903 67 227 1.0 9.0 0.00 0.27 0.27 81 1006.1
20260506182842 67 230 2.0 6.0 0.00 0.27 0.27 82 1006.1
20260506182340 67 117 2.0 5.0 0.00 0.27 0.27 81 1006.2
20260506181841 67 203 3.0 6.0 0.00 0.27 0.27 82 1006.3
20260506181341 67 202 3.0 10.0 0.00 0.27 0.27 81 1006.4
20260506180842 67 250 4.0 10.0 0.00 0.27 0.27 82 1006.4